When you browse on this site, cookies collect data to enhance your experience and personalize the content and advertising you see.
Visit our Privacy Policy to learn more. By continuing to use the site, you agree to this use of cookies and data.
  • In Czech Republic
  • List of Countries
  • For 7 days
  • Water Temperature
  • Satellite Maps
  • Weather Map
  • Weather Widgets
  • user-avatar
    Login

    Hourly Weather Nesebyr

    Today, 23 January, Wednesday

    Time Temperature Precipitation Wind Pressure Humidity
    00:00 +4°C° 0 mm 3 mps 756 mmHg 93%
    01:00 +4°C° 0 mm 3 mps 755 mmHg 92%
    02:00 +5°C° 0 mm 3 mps 755 mmHg 92%
    03:00 +5°C° 0.5 mm 3 mps 754 mmHg 91%
    04:00 +7°C° 0.5 mm 3 mps 753 mmHg 89%
    05:00 +8°C° 0.5 mm 3 mps 753 mmHg 88%
    06:00 +7°C° 0 mm 4 mps 752 mmHg 88%
    07:00 +8°C° 0 mm 4 mps 752 mmHg 87%
    08:00 +8°C° 0 mm 4 mps 752 mmHg 87%
    09:00 +9°C° 0 mm 5 mps 752 mmHg 82%
    10:00 +10°C° 0 mm 6 mps 752 mmHg 78%
    11:00 +12°C° 0 mm 7 mps 752 mmHg 74%
    12:00 +12°C° 0 mm 7 mps 751 mmHg 72%
    13:00 +14°C° 0 mm 7 mps 751 mmHg 69%
    14:00 +14°C° 0 mm 7 mps 751 mmHg 67%
    15:00 +13°C° 0.1 mm 6 mps 751 mmHg 71%
    16:00 +13°C° 0.1 mm 6 mps 750 mmHg 75%
    17:00 +11°C° 0.1 mm 6 mps 750 mmHg 79%
    18:00 +10°C° 0 mm 5 mps 750 mmHg 81%
    19:00 +10°C° 0 mm 5 mps 750 mmHg 82%
    20:00 +10°C° 0 mm 5 mps 750 mmHg 83%
    21:00 +10°C° 0.1 mm 5 mps 750 mmHg 83%
    22:00 +10°C° 0.1 mm 5 mps 750 mmHg 83%
    23:00 +10°C° 0.1 mm 5 mps 750 mmHg 83%

    Tomorrow, 24 January, Thursday

    Time Temperature Precipitation Wind Pressure Humidity
    00:00 +9°C° 0.1 mm 5 mps 749 mmHg 84%
    01:00 +9°C° 0.1 mm 5 mps 749 mmHg 85%
    02:00 +10°C° 0.1 mm 4 mps 749 mmHg 85%
    03:00 +10°C° 0.1 mm 4 mps 748 mmHg 85%
    04:00 +8°C° 0.1 mm 5 mps 748 mmHg 85%
    05:00 +8°C° 0.1 mm 5 mps 747 mmHg 85%
    06:00 +8°C° 0.8 mm 5 mps 747 mmHg 86%
    07:00 +8°C° 0.8 mm 5 mps 746 mmHg 86%
    08:00 +8°C° 0.8 mm 5 mps 746 mmHg 87%
    09:00 +8°C° 1.5 mm 5 mps 746 mmHg 84%
    10:00 +9°C° 1.5 mm 5 mps 746 mmHg 82%
    11:00 +9°C° 1.5 mm 5 mps 746 mmHg 79%
    12:00 +10°C° 0 mm 5 mps 745 mmHg 77%
    13:00 +12°C° 0 mm 5 mps 745 mmHg 75%
    14:00 +11°C° 0 mm 6 mps 745 mmHg 72%
    15:00 +12°C° 0 mm 5 mps 745 mmHg 76%
    16:00 +11°C° 0 mm 4 mps 744 mmHg 79%
    17:00 +10°C° 0 mm 3 mps 744 mmHg 83%
    18:00 +10°C° 0 mm 3 mps 745 mmHg 84%
    19:00 +9°C° 0 mm 3 mps 745 mmHg 86%
    20:00 +9°C° 0 mm 3 mps 745 mmHg 88%
    21:00 +9°C° 0 mm 3 mps 746 mmHg 87%
    22:00 +9°C° 0 mm 3 mps 746 mmHg 87%
    23:00 +9°C° 0 mm 3 mps 747 mmHg 86%

    Day after tomorrow, 25 January, Friday

    Time Temperature Precipitation Wind Pressure Humidity
    00:00 +9°C° 0 mm 3 mps 747 mmHg 85%
    01:00 +9°C° 0 mm 3 mps 747 mmHg 85%
    02:00 +9°C° 0 mm 3 mps 748 mmHg 84%
    03:00 +9°C° 0 mm 3 mps 748 mmHg 85%
    04:00 +8°C° 0 mm 3 mps 748 mmHg 86%
    05:00 +8°C° 0 mm 3 mps 747 mmHg 87%
    06:00 +8°C° 0.1 mm 3 mps 747 mmHg 85%
    07:00 +8°C° 0.1 mm 4 mps 747 mmHg 83%
    08:00 +8°C° 0.1 mm 5 mps 747 mmHg 81%
    09:00 +8°C° 1.4 mm 5 mps 747 mmHg 80%
    10:00 +9°C° 1.4 mm 6 mps 747 mmHg 79%
    11:00 +9°C° 1.4 mm 6 mps 747 mmHg 79%
    12:00 +10°C° 0.2 mm 5 mps 747 mmHg 78%
    13:00 +10°C° 0.2 mm 5 mps 747 mmHg 77%
    14:00 +11°C° 0.2 mm 4 mps 747 mmHg 76%
    15:00 +11°C° 0 mm 4 mps 746 mmHg 78%
    16:00 +11°C° 0 mm 4 mps 746 mmHg 80%
    17:00 +10°C° 0 mm 4 mps 746 mmHg 82%
    18:00 +10°C° 0.4 mm 4 mps 746 mmHg 85%
    19:00 +10°C° 0.4 mm 4 mps 745 mmHg 88%
    20:00 +8°C° 0.4 mm 4 mps 745 mmHg 91%
    21:00 +8°C° 0.3 mm 4 mps 745 mmHg 89%
    22:00 +9°C° 0.3 mm 5 mps 745 mmHg 87%
    23:00 +9°C° 0.3 mm 5 mps 745 mmHg 85%

    26 January, Saturday

    Time Temperature Precipitation Wind Pressure Humidity
    00:00 +9°C° 0.1 mm 5 mps 745 mmHg 86%
    01:00 +8°C° 0.1 mm 4 mps 745 mmHg 87%
    02:00 +8°C° 0.1 mm 4 mps 745 mmHg 87%
    03:00 +9°C° 0 mm 3 mps 745 mmHg 88%
    04:00 +8°C° 0 mm 3 mps 745 mmHg 90%
    05:00 +7°C° 0 mm 2 mps 744 mmHg 91%
    06:00 +7°C° 0 mm 2 mps 745 mmHg 90%
    07:00 +9°C° 0 mm 1 mps 745 mmHg 89%
    08:00 +9°C° 0 mm 1 mps 745 mmHg 88%
    09:00 +9°C° 0.2 mm 1 mps 745 mmHg 86%
    10:00 +9°C° 0.2 mm 2 mps 745 mmHg 84%
    11:00 +10°C° 0.2 mm 2 mps 746 mmHg 82%
    12:00 +11°C° 0.1 mm 3 mps 745 mmHg 80%
    13:00 +11°C° 0.1 mm 3 mps 745 mmHg 78%
    14:00 +12°C° 0.1 mm 4 mps 745 mmHg 77%
    15:00 +11°C° 0.2 mm 3 mps 745 mmHg 80%
    16:00 +10°C° 0.2 mm 3 mps 745 mmHg 83%
    17:00 +10°C° 0.2 mm 3 mps 746 mmHg 86%
    18:00 +9°C° 0.3 mm 2 mps 746 mmHg 87%
    19:00 +10°C° 0.3 mm 1 mps 746 mmHg 89%
    20:00 +10°C° 0.3 mm 1 mps 747 mmHg 90%
    21:00 +10°C° 0.3 mm 1 mps 747 mmHg 90%
    22:00 +8°C° 0.3 mm 2 mps 747 mmHg 91%
    23:00 +8°C° 0.3 mm 3 mps 747 mmHg 91%

    27 January, Sunday

    Time Temperature Precipitation Wind Pressure Humidity
    00:00 +8°C° 1.1 mm 3 mps 747 mmHg 91%
    01:00 +8°C° 1.1 mm 3 mps 747 mmHg 92%
    02:00 +7°C° 1.1 mm 4 mps 747 mmHg 92%
    03:00 +8°C° 0.2 mm 3 mps 747 mmHg 91%
    04:00 +8°C° 0.2 mm 3 mps 747 mmHg 89%
    05:00 +8°C° 0.2 mm 3 mps 747 mmHg 88%
    06:00 +7°C° 0 mm 3 mps 748 mmHg 88%
    07:00 +7°C° 0 mm 3 mps 748 mmHg 88%
    08:00 +5°C° 0 mm 3 mps 748 mmHg 88%
    09:00 +7°C° 0 mm 3 mps 748 mmHg 84%
    10:00 +8°C° 0 mm 3 mps 749 mmHg 80%
    11:00 +8°C° 0 mm 3 mps 749 mmHg 76%
    12:00 +8°C° 0 mm 3 mps 749 mmHg 75%
    13:00 +9°C° 0 mm 3 mps 748 mmHg 73%
    14:00 +9°C° 0 mm 3 mps 748 mmHg 71%
    15:00 +9°C° 0 mm 3 mps 748 mmHg 73%
    16:00 +8°C° 0 mm 2 mps 749 mmHg 76%
    17:00 +8°C° 0 mm 2 mps 749 mmHg 78%
    18:00 +8°C° 0 mm 1 mps 749 mmHg 80%
    19:00 +7°C° 0 mm 1 mps 750 mmHg 82%
    20:00 +7°C° 0 mm 1 mps 750 mmHg 84%
    21:00 +7°C° 0 mm 1 mps 751 mmHg 85%
    22:00 +6°C° 0 mm 1 mps 751 mmHg 85%
    23:00 +6°C° 0 mm 1 mps 751 mmHg 86%

    28 January, Monday

    Time Temperature Precipitation Wind Pressure Humidity
    00:00 +6°C° 0 mm 1 mps 752 mmHg 87%
    01:00 +6°C° 0 mm 1 mps 752 mmHg 87%
    02:00 +4°C° 0 mm 0 mps 752 mmHg 87%
    03:00 +5°C° 0 mm 1 mps 753 mmHg 88%
    04:00 +5°C° 0 mm 1 mps 753 mmHg 88%
    05:00 +5°C° 0 mm 1 mps 753 mmHg 89%
    06:00 +5°C° 0 mm 1 mps 753 mmHg 89%
    07:00 +5°C° 0 mm 1 mps 754 mmHg 89%
    08:00 +5°C° 0 mm 1 mps 754 mmHg 90%
    09:00 +6°C° 0 mm 1 mps 755 mmHg 82%
    10:00 +8°C° 0 mm 1 mps 755 mmHg 75%
    11:00 +9°C° 0 mm 2 mps 756 mmHg 67%
    12:00 +10°C° 0 mm 2 mps 756 mmHg 65%
    13:00 +12°C° 0 mm 2 mps 756 mmHg 62%
    14:00 +12°C° 0 mm 3 mps 756 mmHg 59%
    15:00 +12°C° 0 mm 2 mps 756 mmHg 64%
    16:00 +10°C° 0 mm 2 mps 756 mmHg 70%
    17:00 +10°C° 0 mm 2 mps 756 mmHg 75%
    18:00 +9°C° 0 mm 2 mps 757 mmHg 77%
    19:00 +8°C° 0 mm 2 mps 757 mmHg 80%
    20:00 +8°C° 0 mm 2 mps 757 mmHg 82%
    21:00 +7°C° 0 mm 2 mps 758 mmHg 83%
    22:00 +7°C° 0 mm 2 mps 758 mmHg 85%
    23:00 +7°C° 0 mm 2 mps 758 mmHg 86%
    Show more